| time (UTC) | temp F | wind direction | speed knots | gust knots | rain 1hr in | rain 24hr in | rain mn in | humidity % | barometer mb |
| 20260505203040 | 65 | 188 | 3.5 | 7.8 | 0.00 | 0.00 | 0.00 | 49 | 1005.2 |
| 20260505202017 | 66 | 175 | 2.6 | 5.2 | 0.00 | 0.00 | 0.00 | 48 | 1005.1 |
| 20260505201040 | 66 | 192 | 1.7 | 3.5 | 0.00 | 0.00 | 0.00 | 48 | 1005.0 |
| 20260505200019 | 66 | 156 | 2.6 | 6.1 | 0.00 | 0.00 | 0.00 | 47 | 1004.8 |
| 20260505195020 | 67 | 175 | 1.7 | 3.5 | 0.00 | 0.00 | 0.00 | 47 | 1004.7 |
| 20260505194020 | 67 | 176 | 1.7 | 3.5 | 0.00 | 0.00 | 0.00 | 46 | 1004.6 |
| 20260505193041 | 67 | 177 | 1.7 | 5.2 | 0.00 | 0.00 | 0.00 | 45 | 1004.7 |
| 20260505192018 | 68 | 182 | 1.7 | 5.2 | 0.00 | 0.00 | 0.00 | 45 | 1004.6 |
| 20260505191021 | 68 | 174 | 1.7 | 3.5 | 0.00 | 0.00 | 0.00 | 44 | 1004.5 |
| 20260505190019 | 69 | 186 | 2.6 | 7.0 | 0.00 | 0.00 | 0.00 | 44 | 1004.5 |
| 20260505185143 | 69 | 181 | 1.7 | 5.2 | 0.00 | 0.00 | 0.00 | 43 | 1004.4 |
| 20260505184039 | 70 | 175 | 1.7 | 3.5 | 0.00 | 0.00 | 0.00 | 42 | 1004.3 |
| 20260505183018 | 70 | 177 | 2.6 | 5.2 | 0.00 | 0.00 | 0.00 | 42 | 1004.2 |
| 20260505182019 | 71 | 157 | 2.6 | 6.1 | 0.00 | 0.00 | 0.00 | 41 | 1004.3 |
| 20260505181019 | 72 | 151 | 2.6 | 7.0 | 0.00 | 0.00 | 0.00 | 40 | 1004.2 |
| 20260505180041 | 72 | 168 | 3.5 | 8.7 | 0.00 | 0.00 | 0.00 | 39 | 1004.2 |
| 20260505175017 | 73 | 165 | 3.5 | 9.6 | 0.00 | 0.00 | 0.00 | 39 | 1004.1 |
| 20260505174020 | 74 | 159 | 3.5 | 9.6 | 0.00 | 0.00 | 0.00 | 38 | 1004.1 |
| 20260505173017 | 74 | 147 | 2.6 | 7.0 | 0.00 | 0.00 | 0.00 | 38 | 1004.1 |
| 20260505172020 | 75 | 117 | 3.5 | 9.6 | 0.00 | 0.00 | 0.00 | 37 | 1003.9 |
| 20260505171018 | 76 | 93 | 2.6 | 7.0 | 0.00 | 0.00 | 0.00 | 36 | 1004.0 |
| 20260505170020 | 77 | 92 | 2.6 | 7.0 | 0.00 | 0.00 | 0.00 | 36 | 1004.0 |
| 20260505165517 | 77 | 142 | 3.5 | 12.2 | 0.00 | 0.00 | 0.00 | 35 | 1004.1 |
| 20260505164520 | 77 | 136 | 2.6 | 12.2 | 0.00 | 0.00 | 0.00 | 35 | 1004.1 |
| 20260505163525 | 78 | 154 | 5.2 | 11.3 | 0.00 | 0.00 | 0.00 | 34 | 1004.2 |
| 20260505162520 | 79 | 149 | 2.6 | 9.6 | 0.00 | 0.00 | 0.00 | 32 | 1004.1 |
| 20260505161518 | 79 | 161 | 5.2 | 13.0 | 0.00 | 0.00 | 0.00 | 31 | 1004.3 |
| 20260505160520 | 80 | 173 | 7.8 | 15.6 | 0.00 | 0.00 | 0.00 | 30 | 1004.2 |
| 20260505152545 | 80 | 144 | 5.2 | 18.2 | 0.00 | 0.00 | 0.00 | 29 | 1004.3 |
| 20260505151519 | 81 | 119 | 5.2 | 16.5 | 0.00 | 0.00 | 0.00 | 28 | 1004.1 |
| 20260505150521 | 82 | 125 | 5.2 | 15.6 | 0.00 | 0.00 | 0.00 | 27 | 1004.3 |
| 20260505125021 | 86 | 102 | 2.6 | 7.0 | 0.00 | 0.00 | 0.00 | 22 | 1005.7 |